owner,sensor,date,latitude,longitude,vertical_datum,sea_water_practical_salinity,qcFlag 
NERRS,ioos:station:NOAA.NERRS:rkblhwq:1,2019-03-01T03:45:00Z,26.0257,-81.7332,1.39,33.1,1111122 
NERRS,ioos:station:NOAA.NERRS:rkblhwq:1,2019-03-01T04:45:00Z,26.0257,-81.7332,1.3,33.1,1111122 
NERRS,ioos:station:NOAA.NERRS:rkblhwq:1,2019-03-01T05:45:00Z,26.0257,-81.7332,1.2,32.8,1111122 
NERRS,ioos:station:NOAA.NERRS:rkblhwq:1,2019-03-01T06:45:00Z,26.0257,-81.7332,1.09,32.7,1111122 
NERRS,ioos:station:NOAA.NERRS:rkblhwq:1,2019-03-01T07:45:00Z,26.0257,-81.7332,0.97,32.8,1111122 
NERRS,ioos:station:NOAA.NERRS:rkblhwq:1,2019-03-01T08:45:00Z,26.0257,-81.7332,0.88,32.5,1111122 
NERRS,ioos:station:NOAA.NERRS:rkblhwq:1,2019-03-01T09:30:00Z,26.0257,-81.7332,0.82,32.5,1111122 
NERRS,ioos:station:NOAA.NERRS:rkblhwq:1,2019-03-01T10:45:00Z,26.0257,-81.7332,0.81,30.7,1111122 
NERRS,ioos:station:NOAA.NERRS:rkblhwq:1,2019-03-01T11:45:00Z,26.0257,-81.7332,0.91,32.0,1111122 
NERRS,ioos:station:NOAA.NERRS:rkblhwq:1,2019-03-01T12:45:00Z,26.0257,-81.7332,1.03,32.1,1111122 
NERRS,ioos:station:NOAA.NERRS:rkblhwq:1,2019-03-01T13:45:00Z,26.0257,-81.7332,1.15,32.9,1111122 
NERRS,ioos:station:NOAA.NERRS:rkblhwq:1,2019-03-01T14:45:00Z,26.0257,-81.7332,1.28,33.0,1111122 
NERRS,ioos:station:NOAA.NERRS:rkblhwq:1,2019-03-01T15:45:00Z,26.0257,-81.7332,1.4,33.2,1111122 
NERRS,ioos:station:NOAA.NERRS:rkblhwq:1,2019-03-01T16:45:00Z,26.0257,-81.7332,1.48,33.2,1111122 
NERRS,ioos:station:NOAA.NERRS:rkblhwq:1,2019-03-01T17:45:00Z,26.0257,-81.7332,1.47,33.2,1111122 
NERRS,ioos:station:NOAA.NERRS:rkblhwq:1,2019-03-01T18:45:00Z,26.0257,-81.7332,1.39,33.1,1111122 
NERRS,ioos:station:NOAA.NERRS:rkblhwq:1,2019-03-01T19:45:00Z,26.0257,-81.7332,1.31,33.1,1111122 
NERRS,ioos:station:NOAA.NERRS:rkblhwq:1,2019-03-01T20:45:00Z,26.0257,-81.7332,1.25,33.2,1111122 
NERRS,ioos:station:NOAA.NERRS:rkblhwq:1,2019-03-01T21:45:00Z,26.0257,-81.7332,1.22,33.1,1111122 
NERRS,ioos:station:NOAA.NERRS:rkblhwq:1,2019-03-01T22:45:00Z,26.0257,-81.7332,1.26,32.9,1111122 
NERRS,ioos:station:NOAA.NERRS:rkblhwq:1,2019-03-01T23:45:00Z,26.0257,-81.7332,1.33,33.1,1111122 
NERRS,ioos:station:NOAA.NERRS:rkblhwq:1,2019-03-02T00:45:00Z,26.0257,-81.7332,1.43,33.2,1111122 
NERRS,ioos:station:NOAA.NERRS:rkblhwq:1,2019-03-02T01:45:00Z,26.0257,-81.7332,1.51,33.2,1111122 
NERRS,ioos:station:NOAA.NERRS:rkblhwq:1,2019-03-02T02:45:00Z,26.0257,-81.7332,1.56,33.5,1111122 
NERRS,ioos:station:NOAA.NERRS:rkblhwq:1,2019-03-02T03:45:00Z,26.0257,-81.7332,1.56,33.5,1111122 
NERRS,ioos:station:NOAA.NERRS:rkblhwq:1,2019-03-02T05:45:00Z,26.0257,-81.7332,1.41,33.0,1111122 
NERRS,ioos:station:NOAA.NERRS:rkblhwq:1,2019-03-02T06:45:00Z,26.0257,-81.7332,1.28,32.5,1111122 
NERRS,ioos:station:NOAA.NERRS:rkblhwq:1,2019-03-02T07:45:00Z,26.0257,-81.7332,1.14,32.3,1111122 
NERRS,ioos:station:NOAA.NERRS:rkblhwq:1,2019-03-02T08:45:00Z,26.0257,-81.7332,1.01,32.2,1111122 
NERRS,ioos:station:NOAA.NERRS:rkblhwq:1,2019-03-02T09:45:00Z,26.0257,-81.7332,0.89,32.1,1111122 
NERRS,ioos:station:NOAA.NERRS:rkblhwq:1,2019-03-02T10:45:00Z,26.0257,-81.7332,0.81,32.3,1111122 
NERRS,ioos:station:NOAA.NERRS:rkblhwq:1,2019-03-02T11:45:00Z,26.0257,-81.7332,0.82,31.4,1111122 
NERRS,ioos:station:NOAA.NERRS:rkblhwq:1,2019-03-02T12:45:00Z,26.0257,-81.7332,0.93,32.0,1111122 
NERRS,ioos:station:NOAA.NERRS:rkblhwq:1,2019-03-02T13:45:00Z,26.0257,-81.7332,1.04,32.2,1111122 
NERRS,ioos:station:NOAA.NERRS:rkblhwq:1,2019-03-02T14:45:00Z,26.0257,-81.7332,1.17,33.1,1111122 
NERRS,ioos:station:NOAA.NERRS:rkblhwq:1,2019-03-02T15:45:00Z,26.0257,-81.7332,1.3,33.3,1111122 
NERRS,ioos:station:NOAA.NERRS:rkblhwq:1,2019-03-02T16:45:00Z,26.0257,-81.7332,1.42,33.2,1111122 
NERRS,ioos:station:NOAA.NERRS:rkblhwq:1,2019-03-02T17:45:00Z,26.0257,-81.7332,1.49,33.2,1111122 
NERRS,ioos:station:NOAA.NERRS:rkblhwq:1,2019-03-02T18:45:00Z,26.0257,-81.7332,1.45,33.3,1111122 
NERRS,ioos:station:NOAA.NERRS:rkblhwq:1,2019-03-02T19:45:00Z,26.0257,-81.7332,1.34,33.3,1111122 
NERRS,ioos:station:NOAA.NERRS:rkblhwq:1,2019-03-02T20:45:00Z,26.0257,-81.7332,1.24,33.2,1111122 
NERRS,ioos:station:NOAA.NERRS:rkblhwq:1,2019-03-02T21:45:00Z,26.0257,-81.7332,1.17,33.0,1111122 
NERRS,ioos:station:NOAA.NERRS:rkblhwq:1,2019-03-02T22:45:00Z,26.0257,-81.7332,1.14,32.9,1111122 
NERRS,ioos:station:NOAA.NERRS:rkblhwq:1,2019-03-02T23:45:00Z,26.0257,-81.7332,1.19,33.0,1111122 
NERRS,ioos:station:NOAA.NERRS:rkblhwq:1,2019-03-03T00:45:00Z,26.0257,-81.7332,1.28,33.1,1111122 
NERRS,ioos:station:NOAA.NERRS:rkblhwq:1,2019-03-03T01:45:00Z,26.0257,-81.7332,1.38,33.2,1111122 
NERRS,ioos:station:NOAA.NERRS:rkblhwq:1,2019-03-03T02:45:00Z,26.0257,-81.7332,1.46,33.3,1111122 
NERRS,ioos:station:NOAA.NERRS:rkblhwq:1,2019-03-03T03:45:00Z,26.0257,-81.7332,1.51,33.4,1111122 
NERRS,ioos:station:NOAA.NERRS:rkblhwq:1,2019-03-03T04:45:00Z,26.0257,-81.7332,1.53,33.5,1111122 
NERRS,ioos:station:NOAA.NERRS:rkblhwq:1,2019-03-03T05:45:00Z,26.0257,-81.7332,1.48,33.3,1111122 
NERRS,ioos:station:NOAA.NERRS:rkblhwq:1,2019-03-03T06:45:00Z,26.0257,-81.7332,1.35,32.8,1111122 
NERRS,ioos:station:NOAA.NERRS:rkblhwq:1,2019-03-03T07:45:00Z,26.0257,-81.7332,1.21,32.6,1111122 
NERRS,ioos:station:NOAA.NERRS:rkblhwq:1,2019-03-03T08:45:00Z,26.0257,-81.7332,1.07,32.4,1111122 
NERRS,ioos:station:NOAA.NERRS:rkblhwq:1,2019-03-03T09:45:00Z,26.0257,-81.7332,0.95,32.3,1111122 
NERRS,ioos:station:NOAA.NERRS:rkblhwq:1,2019-03-03T10:45:00Z,26.0257,-81.7332,0.83,32.2,1111122 
NERRS,ioos:station:NOAA.NERRS:rkblhwq:1,2019-03-03T11:45:00Z,26.0257,-81.7332,0.76,32.5,1111122 
NERRS,ioos:station:NOAA.NERRS:rkblhwq:1,2019-03-03T12:45:00Z,26.0257,-81.7332,0.81,31.4,1111122 
NERRS,ioos:station:NOAA.NERRS:rkblhwq:1,2019-03-03T13:45:00Z,26.0257,-81.7332,0.92,32.2,1111122 
NERRS,ioos:station:NOAA.NERRS:rkblhwq:1,2019-03-03T14:45:00Z,26.0257,-81.7332,1.05,33.0,1111122 
NERRS,ioos:station:NOAA.NERRS:rkblhwq:1,2019-03-03T15:45:00Z,26.0257,-81.7332,1.22,33.2,1111122 
NERRS,ioos:station:NOAA.NERRS:rkblhwq:1,2019-03-03T16:45:00Z,26.0257,-81.7332,1.37,33.4,1111122 
NERRS,ioos:station:NOAA.NERRS:rkblhwq:1,2019-03-03T17:45:00Z,26.0257,-81.7332,1.47,33.4,1111122 
NERRS,ioos:station:NOAA.NERRS:rkblhwq:1,2019-03-03T18:45:00Z,26.0257,-81.7332,1.46,33.4,1111122 
NERRS,ioos:station:NOAA.NERRS:rkblhwq:1,2019-03-03T19:45:00Z,26.0257,-81.7332,1.37,33.4,1111122 
NERRS,ioos:station:NOAA.NERRS:rkblhwq:1,2019-03-03T20:45:00Z,26.0257,-81.7332,1.26,33.3,1111122 
NERRS,ioos:station:NOAA.NERRS:rkblhwq:1,2019-03-03T21:45:00Z,26.0257,-81.7332,1.17,33.2,1111122 
NERRS,ioos:station:NOAA.NERRS:rkblhwq:1,2019-03-03T22:45:00Z,26.0257,-81.7332,1.11,32.9,1111122 
NERRS,ioos:station:NOAA.NERRS:rkblhwq:1,2019-03-04T00:45:00Z,26.0257,-81.7332,1.23,33.2,1111122 
NERRS,ioos:station:NOAA.NERRS:rkblhwq:1,2019-03-04T01:45:00Z,26.0257,-81.7332,1.35,33.3,1111122 
NERRS,ioos:station:NOAA.NERRS:rkblhwq:1,2019-03-04T02:45:00Z,26.0257,-81.7332,1.47,33.5,1111122 
NERRS,ioos:station:NOAA.NERRS:rkblhwq:1,2019-03-04T04:45:00Z,26.0257,-81.7332,1.65,33.5,1111122 
NERRS,ioos:station:NOAA.NERRS:rkblhwq:1,2019-03-04T05:45:00Z,26.0257,-81.7332,1.65,33.4,1111122 
NERRS,ioos:station:NOAA.NERRS:rkblhwq:1,2019-03-04T06:45:00Z,26.0257,-81.7332,1.54,33.4,1111122 
NERRS,ioos:station:NOAA.NERRS:rkblhwq:1,2019-03-04T07:45:00Z,26.0257,-81.7332,1.41,33.3,1111122 
NERRS,ioos:station:NOAA.NERRS:rkblhwq:1,2019-03-04T09:45:00Z,26.0257,-81.7332,1.11,32.8,1111122 
NERRS,ioos:station:NOAA.NERRS:rkblhwq:1,2019-03-04T10:45:00Z,26.0257,-81.7332,0.98,32.4,1111122 
NERRS,ioos:station:NOAA.NERRS:rkblhwq:1,2019-03-04T11:45:00Z,26.0257,-81.7332,0.89,32.5,1111122 
NERRS,ioos:station:NOAA.NERRS:rkblhwq:1,2019-03-04T12:45:00Z,26.0257,-81.7332,0.85,32.8,1111122 
NERRS,ioos:station:NOAA.NERRS:rkblhwq:1,2019-03-04T13:45:00Z,26.0257,-81.7332,0.94,32.6,1111122 
NERRS,ioos:station:NOAA.NERRS:rkblhwq:1,2019-03-04T14:45:00Z,26.0257,-81.7332,1.08,32.9,1111122 
NERRS,ioos:station:NOAA.NERRS:rkblhwq:1,2019-03-04T15:45:00Z,26.0257,-81.7332,1.24,33.3,1111122 
NERRS,ioos:station:NOAA.NERRS:rkblhwq:1,2019-03-04T16:45:00Z,26.0257,-81.7332,1.39,33.4,1111122 
NERRS,ioos:station:NOAA.NERRS:rkblhwq:1,2019-03-04T17:45:00Z,26.0257,-81.7332,1.51,33.5,1111122 
NERRS,ioos:station:NOAA.NERRS:rkblhwq:1,2019-03-04T18:45:00Z,26.0257,-81.7332,1.52,33.4,1111122 
NERRS,ioos:station:NOAA.NERRS:rkblhwq:1,2019-03-04T19:45:00Z,26.0257,-81.7332,1.43,33.5,1111122 
NERRS,ioos:station:NOAA.NERRS:rkblhwq:1,2019-03-04T20:45:00Z,26.0257,-81.7332,1.32,33.4,1111122 
NERRS,ioos:station:NOAA.NERRS:rkblhwq:1,2019-03-04T21:45:00Z,26.0257,-81.7332,1.21,33.3,1111122 
NERRS,ioos:station:NOAA.NERRS:rkblhwq:1,2019-03-04T22:45:00Z,26.0257,-81.7332,1.11,33.0,1111122 
NERRS,ioos:station:NOAA.NERRS:rkblhwq:1,2019-03-04T23:45:00Z,26.0257,-81.7332,1.03,33.0,1111122 
NERRS,ioos:station:NOAA.NERRS:rkblhwq:1,2019-03-05T01:45:00Z,26.0257,-81.7332,1.14,33.1,1111122 
NERRS,ioos:station:NOAA.NERRS:rkblhwq:1,2019-03-05T02:45:00Z,26.0257,-81.7332,1.3,33.2,1111122 
NERRS,ioos:station:NOAA.NERRS:rkblhwq:1,2019-03-05T04:45:00Z,26.0257,-81.7332,1.53,33.4,1111122 
NERRS,ioos:station:NOAA.NERRS:rkblhwq:1,2019-03-05T05:45:00Z,26.0257,-81.7332,1.59,33.6,1111122 
NERRS,ioos:station:NOAA.NERRS:rkblhwq:1,2019-03-05T06:45:00Z,26.0257,-81.7332,1.53,33.5,1111122 
NERRS,ioos:station:NOAA.NERRS:rkblhwq:1,2019-03-05T07:45:00Z,26.0257,-81.7332,1.4,33.4,1111122 
NERRS,ioos:station:NOAA.NERRS:rkblhwq:1,2019-03-05T08:45:00Z,26.0257,-81.7332,1.26,33.3,1111122 
NERRS,ioos:station:NOAA.NERRS:rkblhwq:1,2019-03-05T09:45:00Z,26.0257,-81.7332,1.11,33.1,1111122 
NERRS,ioos:station:NOAA.NERRS:rkblhwq:1,2019-03-05T10:45:00Z,26.0257,-81.7332,0.99,32.8,1111122 
NERRS,ioos:station:NOAA.NERRS:rkblhwq:1,2019-03-05T11:45:00Z,26.0257,-81.7332,0.88,32.7,1111122 
NERRS,ioos:station:NOAA.NERRS:rkblhwq:1,2019-03-05T12:45:00Z,26.0257,-81.7332,0.79,32.6,1111122 
NERRS,ioos:station:NOAA.NERRS:rkblhwq:1,2019-03-05T13:45:00Z,26.0257,-81.7332,0.82,31.8,1111122 
NERRS,ioos:station:NOAA.NERRS:rkblhwq:1,2019-03-05T14:45:00Z,26.0257,-81.7332,0.93,32.6,1111122 
NERRS,ioos:station:NOAA.NERRS:rkblhwq:1,2019-03-05T15:45:00Z,26.0257,-81.7332,1.09,33.3,1111122 
NERRS,ioos:station:NOAA.NERRS:rkblhwq:1,2019-03-05T16:45:00Z,26.0257,-81.7332,1.27,33.5,1111122 
NERRS,ioos:station:NOAA.NERRS:rkblhwq:1,2019-03-05T17:45:00Z,26.0257,-81.7332,1.43,33.6,1111122 
NERRS,ioos:station:NOAA.NERRS:rkblhwq:1,2019-03-05T18:45:00Z,26.0257,-81.7332,1.5,33.7,1111122 
NERRS,ioos:station:NOAA.NERRS:rkblhwq:1,2019-03-05T19:45:00Z,26.0257,-81.7332,1.48,33.4,1111122 
NERRS,ioos:station:NOAA.NERRS:rkblhwq:1,2019-03-05T20:45:00Z,26.0257,-81.7332,1.32,33.5,1111122 
NERRS,ioos:station:NOAA.NERRS:rkblhwq:1,2019-03-05T22:45:00Z,26.0257,-81.7332,1.09,33.2,1111122 
NERRS,ioos:station:NOAA.NERRS:rkblhwq:1,2019-03-05T23:45:00Z,26.0257,-81.7332,1.01,33.2,1111122 
NERRS,ioos:station:NOAA.NERRS:rkblhwq:1,2019-03-06T01:45:00Z,26.0257,-81.7332,1.02,32.8,1111122 
NERRS,ioos:station:NOAA.NERRS:rkblhwq:1,2019-03-06T02:45:00Z,26.0257,-81.7332,1.1,33.2,1111122 
NERRS,ioos:station:NOAA.NERRS:rkblhwq:1,2019-03-06T04:45:00Z,26.0257,-81.7332,1.38,33.2,1111122 
NERRS,ioos:station:NOAA.NERRS:rkblhwq:1,2019-03-06T06:45:00Z,26.0257,-81.7332,1.5,33.2,1111122 
NERRS,ioos:station:NOAA.NERRS:rkblhwq:1,2019-03-06T07:45:00Z,26.0257,-81.7332,1.38,32.5,1111122 
NERRS,ioos:station:NOAA.NERRS:rkblhwq:1,2019-03-06T08:45:00Z,26.0257,-81.7332,1.24,32.6,1111122 
NERRS,ioos:station:NOAA.NERRS:rkblhwq:1,2019-03-06T09:45:00Z,26.0257,-81.7332,1.11,32.6,1111122 
NERRS,ioos:station:NOAA.NERRS:rkblhwq:1,2019-03-06T10:45:00Z,26.0257,-81.7332,0.97,32.5,1111122 
NERRS,ioos:station:NOAA.NERRS:rkblhwq:1,2019-03-06T11:45:00Z,26.0257,-81.7332,0.85,32.1,1111122 
NERRS,ioos:station:NOAA.NERRS:rkblhwq:1,2019-03-06T12:45:00Z,26.0257,-81.7332,0.75,33.0,1111122 
NERRS,ioos:station:NOAA.NERRS:rkblhwq:1,2019-03-06T14:45:00Z,26.0257,-81.7332,0.69,32.1,1111122 
NERRS,ioos:station:NOAA.NERRS:rkblhwq:1,2019-03-06T15:45:00Z,26.0257,-81.7332,0.82,32.2,1111122 
NERRS,ioos:station:NOAA.NERRS:rkblhwq:1,2019-03-06T16:45:00Z,26.0257,-81.7332,0.97,33.5,1111122 
NERRS,ioos:station:NOAA.NERRS:rkblhwq:1,2019-03-06T17:45:00Z,26.0257,-81.7332,1.11,33.7,1111122 
NERRS,ioos:station:NOAA.NERRS:rkblhwq:1,2019-03-06T18:45:00Z,26.0257,-81.7332,1.25,33.8,1111122 
NERRS,ioos:station:NOAA.NERRS:rkblhwq:1,2019-03-06T19:45:00Z,26.0257,-81.7332,1.33,33.8,1111122 
NERRS,ioos:station:NOAA.NERRS:rkblhwq:1,2019-03-06T20:45:00Z,26.0257,-81.7332,1.26,33.7,1111122 
NERRS,ioos:station:NOAA.NERRS:rkblhwq:1,2019-03-06T21:45:00Z,26.0257,-81.7332,1.18,33.5,1111122 
NERRS,ioos:station:NOAA.NERRS:rkblhwq:1,2019-03-06T22:45:00Z,26.0257,-81.7332,1.09,33.4,1111122 
NERRS,ioos:station:NOAA.NERRS:rkblhwq:1,2019-03-06T23:45:00Z,26.0257,-81.7332,1.02,33.3,1111122 
NERRS,ioos:station:NOAA.NERRS:rkblhwq:1,2019-03-07T00:45:00Z,26.0257,-81.7332,0.97,33.5,1111122 
NERRS,ioos:station:NOAA.NERRS:rkblhwq:1,2019-03-07T01:45:00Z,26.0257,-81.7332,0.99,33.0,1111122 
NERRS,ioos:station:NOAA.NERRS:rkblhwq:1,2019-03-07T02:45:00Z,26.0257,-81.7332,1.1,33.1,1111122 
NERRS,ioos:station:NOAA.NERRS:rkblhwq:1,2019-03-07T03:45:00Z,26.0257,-81.7332,1.22,33.1,1111122 
NERRS,ioos:station:NOAA.NERRS:rkblhwq:1,2019-03-07T05:45:00Z,26.0257,-81.7332,1.49,33.6,1111122 
NERRS,ioos:station:NOAA.NERRS:rkblhwq:1,2019-03-07T06:45:00Z,26.0257,-81.7332,1.56,33.8,1111122 
NERRS,ioos:station:NOAA.NERRS:rkblhwq:1,2019-03-07T07:45:00Z,26.0257,-81.7332,1.5,33.7,1111122 
NERRS,ioos:station:NOAA.NERRS:rkblhwq:1,2019-03-07T08:45:00Z,26.0257,-81.7332,1.38,33.7,1111122 
NERRS,ioos:station:NOAA.NERRS:rkblhwq:1,2019-03-07T09:45:00Z,26.0257,-81.7332,1.25,33.4,1111122 
NERRS,ioos:station:NOAA.NERRS:rkblhwq:1,2019-03-07T10:45:00Z,26.0257,-81.7332,1.13,33.1,1111122 
NERRS,ioos:station:NOAA.NERRS:rkblhwq:1,2019-03-07T11:45:00Z,26.0257,-81.7332,1.01,33.2,1111122 
NERRS,ioos:station:NOAA.NERRS:rkblhwq:1,2019-03-07T12:45:00Z,26.0257,-81.7332,0.92,33.2,1111122 
NERRS,ioos:station:NOAA.NERRS:rkblhwq:1,2019-03-07T13:45:00Z,26.0257,-81.7332,0.86,33.2,1111122 
NERRS,ioos:station:NOAA.NERRS:rkblhwq:1,2019-03-07T14:45:00Z,26.0257,-81.7332,0.91,32.8,1111122 
NERRS,ioos:station:NOAA.NERRS:rkblhwq:1,2019-03-07T15:45:00Z,26.0257,-81.7332,1.03,32.9,1111122 
NERRS,ioos:station:NOAA.NERRS:rkblhwq:1,2019-03-07T16:45:00Z,26.0257,-81.7332,1.17,33.7,1111122 
NERRS,ioos:station:NOAA.NERRS:rkblhwq:1,2019-03-07T17:45:00Z,26.0257,-81.7332,1.33,33.8,1111122 
NERRS,ioos:station:NOAA.NERRS:rkblhwq:1,2019-03-07T18:45:00Z,26.0257,-81.7332,1.46,33.8,1111122 
NERRS,ioos:station:NOAA.NERRS:rkblhwq:1,2019-03-07T19:45:00Z,26.0257,-81.7332,1.52,33.8,1111122 
NERRS,ioos:station:NOAA.NERRS:rkblhwq:1,2019-03-07T20:45:00Z,26.0257,-81.7332,1.44,33.7,1111122 
NERRS,ioos:station:NOAA.NERRS:rkblhwq:1,2019-03-07T21:45:00Z,26.0257,-81.7332,1.32,33.4,1111122 
NERRS,ioos:station:NOAA.NERRS:rkblhwq:1,2019-03-07T22:45:00Z,26.0257,-81.7332,1.2,33.3,1111122 
NERRS,ioos:station:NOAA.NERRS:rkblhwq:1,2019-03-07T23:45:00Z,26.0257,-81.7332,1.1,33.4,1111122 
NERRS,ioos:station:NOAA.NERRS:rkblhwq:1,2019-03-08T00:45:00Z,26.0257,-81.7332,1.01,33.3,1111122 
NERRS,ioos:station:NOAA.NERRS:rkblhwq:1,2019-03-08T01:45:00Z,26.0257,-81.7332,0.97,33.0,1111122 
NERRS,ioos:station:NOAA.NERRS:rkblhwq:1,2019-03-08T02:45:00Z,26.0257,-81.7332,1.05,33.0,1111122 
NERRS,ioos:station:NOAA.NERRS:rkblhwq:1,2019-03-08T03:45:00Z,26.0257,-81.7332,1.18,33.4,1111122 
NERRS,ioos:station:NOAA.NERRS:rkblhwq:1,2019-03-08T04:45:00Z,26.0257,-81.7332,1.33,33.8,1111122 
NERRS,ioos:station:NOAA.NERRS:rkblhwq:1,2019-03-08T05:45:00Z,26.0257,-81.7332,1.48,33.6,1111122 
NERRS,ioos:station:NOAA.NERRS:rkblhwq:1,2019-03-08T06:45:00Z,26.0257,-81.7332,1.56,33.6,1111122 
NERRS,ioos:station:NOAA.NERRS:rkblhwq:1,2019-03-08T07:45:00Z,26.0257,-81.7332,1.57,33.5,1111122 
NERRS,ioos:station:NOAA.NERRS:rkblhwq:1,2019-03-08T08:45:00Z,26.0257,-81.7332,1.47,33.6,1111122 
NERRS,ioos:station:NOAA.NERRS:rkblhwq:1,2019-03-08T09:45:00Z,26.0257,-81.7332,1.35,33.5,1111122 
NERRS,ioos:station:NOAA.NERRS:rkblhwq:1,2019-03-08T10:45:00Z,26.0257,-81.7332,1.22,33.2,1111122 
NERRS,ioos:station:NOAA.NERRS:rkblhwq:1,2019-03-08T11:45:00Z,26.0257,-81.7332,1.09,33.2,1111122 
NERRS,ioos:station:NOAA.NERRS:rkblhwq:1,2019-03-08T12:45:00Z,26.0257,-81.7332,0.99,33.1,1111122 
NERRS,ioos:station:NOAA.NERRS:rkblhwq:1,2019-03-08T13:45:00Z,26.0257,-81.7332,0.91,33.1,1111122 
NERRS,ioos:station:NOAA.NERRS:rkblhwq:1,2019-03-08T15:45:00Z,26.0257,-81.7332,1.09,33.1,1111122 
NERRS,ioos:station:NOAA.NERRS:rkblhwq:1,2019-03-08T16:45:00Z,26.0257,-81.7332,1.24,33.6,1111122 
NERRS,ioos:station:NOAA.NERRS:rkblhwq:1,2019-03-08T17:45:00Z,26.0257,-81.7332,1.39,33.8,1111122 
NERRS,ioos:station:NOAA.NERRS:rkblhwq:1,2019-03-08T18:45:00Z,26.0257,-81.7332,1.52,33.8,1111122 
NERRS,ioos:station:NOAA.NERRS:rkblhwq:1,2019-03-08T19:45:00Z,26.0257,-81.7332,1.6,33.7,1111122 
NERRS,ioos:station:NOAA.NERRS:rkblhwq:1,2019-03-08T20:45:00Z,26.0257,-81.7332,1.59,33.8,1111122 
NERRS,ioos:station:NOAA.NERRS:rkblhwq:1,2019-03-08T21:45:00Z,26.0257,-81.7332,1.47,33.7,1111122 
NERRS,ioos:station:NOAA.NERRS:rkblhwq:1,2019-03-08T22:45:00Z,26.0257,-81.7332,1.34,33.7,1111122 
NERRS,ioos:station:NOAA.NERRS:rkblhwq:1,2019-03-08T23:45:00Z,26.0257,-81.7332,1.21,33.5,1111122 
NERRS,ioos:station:NOAA.NERRS:rkblhwq:1,2019-03-09T00:45:00Z,26.0257,-81.7332,1.08,33.2,1111122 
NERRS,ioos:station:NOAA.NERRS:rkblhwq:1,2019-03-09T01:45:00Z,26.0257,-81.7332,0.98,33.2,1111122 
NERRS,ioos:station:NOAA.NERRS:rkblhwq:1,2019-03-09T02:45:00Z,26.0257,-81.7332,0.95,33.3,1111122 
NERRS,ioos:station:NOAA.NERRS:rkblhwq:1,2019-03-09T03:45:00Z,26.0257,-81.7332,1.04,33.2,1111122 
NERRS,ioos:station:NOAA.NERRS:rkblhwq:1,2019-03-09T04:45:00Z,26.0257,-81.7332,1.19,33.5,1111122 
NERRS,ioos:station:NOAA.NERRS:rkblhwq:1,2019-03-09T05:45:00Z,26.0257,-81.7332,1.35,33.7,1111122 
NERRS,ioos:station:NOAA.NERRS:rkblhwq:1,2019-03-09T06:45:00Z,26.0257,-81.7332,1.51,33.8,1111122 
NERRS,ioos:station:NOAA.NERRS:rkblhwq:1,2019-03-09T07:45:00Z,26.0257,-81.7332,1.6,33.8,1111122 
NERRS,ioos:station:NOAA.NERRS:rkblhwq:1,2019-03-09T08:45:00Z,26.0257,-81.7332,1.58,33.7,1111122 
NERRS,ioos:station:NOAA.NERRS:rkblhwq:1,2019-03-09T09:45:00Z,26.0257,-81.7332,1.46,33.6,1111122 
NERRS,ioos:station:NOAA.NERRS:rkblhwq:1,2019-03-09T10:45:00Z,26.0257,-81.7332,1.33,33.2,1111122 
NERRS,ioos:station:NOAA.NERRS:rkblhwq:1,2019-03-09T11:45:00Z,26.0257,-81.7332,1.2,33.2,1111122 
NERRS,ioos:station:NOAA.NERRS:rkblhwq:1,2019-03-09T12:45:00Z,26.0257,-81.7332,1.08,33.3,1111122 
NERRS,ioos:station:NOAA.NERRS:rkblhwq:1,2019-03-09T13:45:00Z,26.0257,-81.7332,0.98,33.2,1111122 
NERRS,ioos:station:NOAA.NERRS:rkblhwq:1,2019-03-09T14:45:00Z,26.0257,-81.7332,0.94,33.1,1111122 
NERRS,ioos:station:NOAA.NERRS:rkblhwq:1,2019-03-09T15:45:00Z,26.0257,-81.7332,1.04,33.3,1111122 
NERRS,ioos:station:NOAA.NERRS:rkblhwq:1,2019-03-09T16:45:00Z,26.0257,-81.7332,1.19,33.4,1111122 
NERRS,ioos:station:NOAA.NERRS:rkblhwq:1,2019-03-09T17:45:00Z,26.0257,-81.7332,1.35,33.7,1111122 
NERRS,ioos:station:NOAA.NERRS:rkblhwq:1,2019-03-09T18:45:00Z,26.0257,-81.7332,1.5,33.7,1111122 
NERRS,ioos:station:NOAA.NERRS:rkblhwq:1,2019-03-09T19:45:00Z,26.0257,-81.7332,1.61,33.7,1111122 
NERRS,ioos:station:NOAA.NERRS:rkblhwq:1,2019-03-09T20:45:00Z,26.0257,-81.7332,1.64,33.7,1111122 
NERRS,ioos:station:NOAA.NERRS:rkblhwq:1,2019-03-09T21:45:00Z,26.0257,-81.7332,1.56,33.8,1111122 
NERRS,ioos:station:NOAA.NERRS:rkblhwq:1,2019-03-09T22:45:00Z,26.0257,-81.7332,1.43,33.8,1111122 
NERRS,ioos:station:NOAA.NERRS:rkblhwq:1,2019-03-09T23:45:00Z,26.0257,-81.7332,1.3,33.6,1111122 
NERRS,ioos:station:NOAA.NERRS:rkblhwq:1,2019-03-10T00:45:00Z,26.0257,-81.7332,1.17,33.4,1111122 
NERRS,ioos:station:NOAA.NERRS:rkblhwq:1,2019-03-10T01:45:00Z,26.0257,-81.7332,1.06,33.3,1111122 
NERRS,ioos:station:NOAA.NERRS:rkblhwq:1,2019-03-10T02:45:00Z,26.0257,-81.7332,0.98,33.2,1111122 
NERRS,ioos:station:NOAA.NERRS:rkblhwq:1,2019-03-10T03:45:00Z,26.0257,-81.7332,1.01,33.1,1111122 
NERRS,ioos:station:NOAA.NERRS:rkblhwq:1,2019-03-10T04:45:00Z,26.0257,-81.7332,1.13,33.5,1111122 
NERRS,ioos:station:NOAA.NERRS:rkblhwq:1,2019-03-10T05:45:00Z,26.0257,-81.7332,1.29,33.7,1111122 
NERRS,ioos:station:NOAA.NERRS:rkblhwq:1,2019-03-10T06:45:00Z,26.0257,-81.7332,1.45,33.8,1111122 
NERRS,ioos:station:NOAA.NERRS:rkblhwq:1,2019-03-10T07:45:00Z,26.0257,-81.7332,1.57,33.8,1111122 
NERRS,ioos:station:NOAA.NERRS:rkblhwq:1,2019-03-10T08:45:00Z,26.0257,-81.7332,1.63,33.8,1111122 
NERRS,ioos:station:NOAA.NERRS:rkblhwq:1,2019-03-10T09:45:00Z,26.0257,-81.7332,1.57,33.7,1111122 
NERRS,ioos:station:NOAA.NERRS:rkblhwq:1,2019-03-10T10:45:00Z,26.0257,-81.7332,1.47,33.5,1111122 
NERRS,ioos:station:NOAA.NERRS:rkblhwq:1,2019-03-10T11:45:00Z,26.0257,-81.7332,1.35,33.4,1111122 
NERRS,ioos:station:NOAA.NERRS:rkblhwq:1,2019-03-10T12:45:00Z,26.0257,-81.7332,1.24,33.2,1111122 
NERRS,ioos:station:NOAA.NERRS:rkblhwq:1,2019-03-10T13:45:00Z,26.0257,-81.7332,1.14,33.3,1111122 
NERRS,ioos:station:NOAA.NERRS:rkblhwq:1,2019-03-10T14:45:00Z,26.0257,-81.7332,1.07,33.4,1111122 
NERRS,ioos:station:NOAA.NERRS:rkblhwq:1,2019-03-10T15:45:00Z,26.0257,-81.7332,1.12,33.2,1111122 
NERRS,ioos:station:NOAA.NERRS:rkblhwq:1,2019-03-10T16:45:00Z,26.0257,-81.7332,1.26,33.4,1111122 
NERRS,ioos:station:NOAA.NERRS:rkblhwq:1,2019-03-10T17:45:00Z,26.0257,-81.7332,1.4,33.7,1111122 
NERRS,ioos:station:NOAA.NERRS:rkblhwq:1,2019-03-10T18:45:00Z,26.0257,-81.7332,1.54,33.9,1111122 
NERRS,ioos:station:NOAA.NERRS:rkblhwq:1,2019-03-10T19:45:00Z,26.0257,-81.7332,1.65,33.8,1111122 
NERRS,ioos:station:NOAA.NERRS:rkblhwq:1,2019-03-10T20:45:00Z,26.0257,-81.7332,1.68,33.8,1111122 
NERRS,ioos:station:NOAA.NERRS:rkblhwq:1,2019-03-10T21:45:00Z,26.0257,-81.7332,1.62,33.8,1111122 
NERRS,ioos:station:NOAA.NERRS:rkblhwq:1,2019-03-11T04:45:00Z,26.0257,-81.7332,1.0,33.3,1111122 
NERRS,ioos:station:NOAA.NERRS:rkblhwq:1,2019-03-11T05:45:00Z,26.0257,-81.7332,1.12,33.5,1111122 
NERRS,ioos:station:NOAA.NERRS:rkblhwq:1,2019-03-11T06:45:00Z,26.0257,-81.7332,1.25,33.8,1111122 
NERRS,ioos:station:NOAA.NERRS:rkblhwq:1,2019-03-11T07:15:00Z,26.0257,-81.7332,1.32,33.8,1111122 
NERRS,ioos:station:NOAA.NERRS:rkblhwq:1,2019-03-11T08:45:00Z,26.0257,-81.7332,1.5,33.8,1111122 
NERRS,ioos:station:NOAA.NERRS:rkblhwq:1,2019-03-11T09:45:00Z,26.0257,-81.7332,1.55,33.9,1111122 
NERRS,ioos:station:NOAA.NERRS:rkblhwq:1,2019-03-11T10:45:00Z,26.0257,-81.7332,1.48,33.8,1111122 
NERRS,ioos:station:NOAA.NERRS:rkblhwq:1,2019-03-11T11:45:00Z,26.0257,-81.7332,1.37,33.6,1111122 
NERRS,ioos:station:NOAA.NERRS:rkblhwq:1,2019-03-11T12:45:00Z,26.0257,-81.7332,1.27,33.4,1111122 
NERRS,ioos:station:NOAA.NERRS:rkblhwq:1,2019-03-11T13:45:00Z,26.0257,-81.7332,1.17,33.3,1111122 
NERRS,ioos:station:NOAA.NERRS:rkblhwq:1,2019-03-11T14:45:00Z,26.0257,-81.7332,1.1,33.3,1111122 
NERRS,ioos:station:NOAA.NERRS:rkblhwq:1,2019-03-11T15:45:00Z,26.0257,-81.7332,1.12,33.2,1111122 
NERRS,ioos:station:NOAA.NERRS:rkblhwq:1,2019-03-11T16:45:00Z,26.0257,-81.7332,1.21,33.3,1111122 
NERRS,ioos:station:NOAA.NERRS:rkblhwq:1,2019-03-11T17:45:00Z,26.0257,-81.7332,1.31,33.5,1111122 
NERRS,ioos:station:NOAA.NERRS:rkblhwq:1,2019-03-11T18:45:00Z,26.0257,-81.7332,1.44,33.7,1111122 
NERRS,ioos:station:NOAA.NERRS:rkblhwq:1,2019-03-11T19:45:00Z,26.0257,-81.7332,1.55,33.9,1111122 
NERRS,ioos:station:NOAA.NERRS:rkblhwq:1,2019-03-11T20:45:00Z,26.0257,-81.7332,1.64,33.9,1111122 
NERRS,ioos:station:NOAA.NERRS:rkblhwq:1,2019-03-11T21:45:00Z,26.0257,-81.7332,1.64,33.8,1111122 
NERRS,ioos:station:NOAA.NERRS:rkblhwq:1,2019-03-11T22:45:00Z,26.0257,-81.7332,1.54,33.9,1111122 
NERRS,ioos:station:NOAA.NERRS:rkblhwq:1,2019-03-11T23:45:00Z,26.0257,-81.7332,1.41,33.8,1111122 
NERRS,ioos:station:NOAA.NERRS:rkblhwq:1,2019-03-12T00:45:00Z,26.0257,-81.7332,1.28,33.6,1111122 
NERRS,ioos:station:NOAA.NERRS:rkblhwq:1,2019-03-12T02:45:00Z,26.0257,-81.7332,1.03,33.6,1111122 
NERRS,ioos:station:NOAA.NERRS:rkblhwq:1,2019-03-12T03:45:00Z,26.0257,-81.7332,0.93,33.4,1111122 
NERRS,ioos:station:NOAA.NERRS:rkblhwq:1,2019-03-12T04:45:00Z,26.0257,-81.7332,0.89,33.3,1111122 